Vorticity
9 12 5 7 3 21 17 2 -6 19 -12 5 -7 -3 5 13 11 14 15 13 21 24 17 23 14 3 8 -8 -8 1 5 0 0 -0 1 6 11 3 6 -21 28 -5 1 3
4 7 8 6 12 23 4 17 21 19 25 4 13 1 14 2 10 16 4 2 10 -4 -11 26 28 18 6 6 15 3 2 10 12 24 36 32 14 13 14 8 -14 13 -28 -3
14 9 6 3 15 -3 1 25 14 -4 -2 8 36 -14 -2 2 6 3 1 -0 17 7 6 18 -14 -6 8 8 8 11 12 14 -22 -53 -44 -24 -13 -2 13 18 1 -10 -39 -34
8 12 12 15 12 7 23 14 8 9 -20 -17 -40 10 13 -6 17 -5 15 -1 16 20 7 21 17 20 15 11 10 6 17 -1 9 11 10 12 9 4 2 -2 8 -28 -22 -8
12 13 11 6 6 14 22 -20 -6 -22 0 10 25 6 8 -5 16 -11 15 -2 10 11 15 14 7 8 4 13 13 16 11 -2 12 5 16 18 14 15 24 16 10 9 13 2
9 11 12 13 13 12 13 7 10 5 -4 2 -6 6 19 36 15 7 21 17 4 9 13 11 19 18 14 -1 -1 8 13 3 7 28 17 1 60 69 63 31 33 29 22 14
13 13 12 12 13 14 13 11 17 11 7 2 19 25 31 22 -1 -0 19 1 14 4 -3 26 17 20 14 8 6 6 -5 12 2 1 20 24 26 9 -5 -3 10 14 13 13
12 13 13 14 13 17 18 18 12 16 11 3 18 12 15 8 -11 25 3 -4 3 -2 14 37 35 23 49 35 28 16 12 8 -9 -3 15 -29 32 33 39 18 3 13 8 13
10 10 11 11 12 11 10 8 13 11 8 12 16 12 -16 0 7 15 30 20 20 10 20 17 9 -4 10 18 12 50 16 14 -15 23 3 -2 -4 -12 -2 9 16 40 17 14
15 12 11 11 11 13 13 12 8 17 4 5 8 12 22 19 6 13 22 2 12 30 17 23 21 9 -7 5 7 39 6 23 -6 -0 -11 18 15 11 9 31 -8 -10 -2 10
14 13 12 12 13 13 6 9 14 5 7 14 10 8 16 23 1 11 23 -5 21 28 27 10 4 19 10 13 -6 8 7 13 27 23 -1 24 36 23 2 -12 2 4 8 12
14 11 11 11 11 10 11 11 9 14 6 -2 8 5 -0 1 -1 3 9 -4 7 -17 5 -3 20 12 -5 13 -7 48 8 -30 -8 -30 18 -16 -18 -7 -2 8 4 7 11 15
12 13 12 11 10 10 12 14 14 13 9 -6 12 3 26 14 8 17 22 13 15 16 14 13 9 0 6 -3 27 -0 17 -4 -16 3 30 18 14 12 6 7 3 8 20 10
16 13 12 11 12 13 15 13 23 11 9 -0 6 5 29 15 14 21 18 14 16 23 15 11 13 9 22 10 1 -2 4 5 11 11 6 13 17 22 23 17 18 16 12 9
14 18 14 12 15 13 9 17 13 12 17 -28 -6 -52 4 11 9 13 9 17 19 17 15 11 15 23 6 -6 0 4 1 24 14 3 14 13 11 13 13 16 15 11 9 8
14 14 14 15 16 12 8 24 22 13 17 -14 30 21 -8 18 9 7 5 4 19 17 11 10 24 5 -7 8 18 22 15 18 2 13 16 12 13 15 15 16 10 9 9 9
15 15 13 7 9 4 8 12 -2 14 9 42 65 42 25 45 43 26 23 24 16 20 17 18 11 5 17 18 -1 17 10 -2 10 19 10 13 13 11 14 11 11 9 7 11
17 11 6 2 16 9 14 33 28 22 20 24 16 -20 25 16 8 17 15 18 20 15 11 11 17 22 14 26 42 19 29 25 19 12 12 13 13 13 11 11 8 7 12 13
15 -7 17 8 6 24 26 22 -5 9 16 -14 -11 -8 26 27 16 23 25 23 25 16 17 23 17 13 -8 32 19 8 6 10 9 12 13 12 13 12 10 9 9 14 12 9
-9 12 -3 45 -1 24 15 3 13 23 3 10 19 17 4 22 7 27 17 25 18 12 30 29 37 11 36 6 9 2 11 10 9 10 10 11 12 11 11 10 10 9 9 9
5 11 38 -8 9 22 22 30 12 10 18 30 20 30 24 22 15 15 13 14 9 9 22 3 11 20 34 37 17 4 9 9 10 10 10 11 12 11 10 10 9 9 8 10
20 45 -10 -9 21 33 20 18 16 5 14 15 14 20 25 20 24 14 24 5 17 9 13 7 14 26 5 12 15 9 9 9 10 12 12 11 10 9 10 9 10 10 10 11
-10 20 34 38 15 12 1 15 2 -2 3 -4 8 15 18 28 22 16 15 10 14 13 10 11 26 8 6 8 7 8 8 10 12 10 10 11 10 10 10 10 12 12 13 13
34 32 12 6 10 11 7 14 -1 3 12 11 20 25 9 19 18 8 10 13 9 8 10 19 24 5 7 7 6 8 8 9 10 12 10 10 11 11 11 13 12 12 12 12
24 5 17 19 3 2 -1 -3 10 19 21 19 26 24 7 26 -3 16 13 12 13 11 18 30 7 7 7 6 6 7 9 11 11 9 11 11 12 12 11 11 13 10 9 9
23 -21 -20 -13 -16 3 15 16 5 10 14 19 12 21 13 9 9 16 6 9 14 26 26 5 7 8 6 6 8 9 10 8 9 12 12 12 13 12 14 15 14 12 13 12
-0 3 18 15 -2 8 -1 -6 15 16 14 16 12 17 10 14 8 12 11 8 30 13 6 8 9 6 5 7 8 7 7 11 12 11 11 12 12 13 13 12 13 14 14 15
Height
3129 3127 3125 3125 3124 3121 3118 3115 3111 3108 3108 3107 3104 3102 3100 3098 3095 3092 3090 3087 3084 3081 3078 3074 3070 3066 3065 3060 3059 3059 3059 3056 3051 3047 3045 3044 3043 3044 3046 3046 3043 3039 3035 3006
3120 3119 3117 3115 3117 3116 3112 3106 3100 3099 3099 3097 3096 3094 3092 3091 3087 3086 3084 3082 3079 3075 3072 3069 3062 3057 3056 3055 3053 3050 3050 3046 3046 3040 3041 3036 3033 3032 3035 3036 3034 3025 3029 3003
3108 3108 3107 3107 3108 3110 3106 3101 3094 3090 3089 3089 3087 3085 3082 3083 3079 3076 3076 3074 3072 3068 3062 3061 3052 3051 3049 3046 3046 3045 3044 3040 3037 3034 3031 3030 3028 3027 3027 3028 3024 3013 2999 2995
3098 3098 3096 3096 3098 3100 3097 3091 3087 3083 3080 3078 3078 3079 3073 3072 3073 3070 3068 3061 3061 3058 3053 3049 3044 3042 3038 3037 3038 3035 3037 3029 3028 3023 3024 3021 3016 3014 3014 3008 3005 3003 2988 2989
3090 3088 3086 3085 3087 3087 3087 3084 3080 3075 3071 3070 3069 3064 3061 3061 3064 3063 3058 3053 3053 3048 3043 3042 3036 3033 3031 3030 3028 3028 3025 3021 3015 3008 3014 3012 3000 2998 2999 2995 2994 2990 2987 2979
3080 3079 3077 3076 3075 3077 3074 3073 3072 3069 3059 3058 3059 3056 3055 3052 3054 3049 3049 3046 3042 3038 3036 3032 3029 3026 3024 3022 3020 3019 3020 3017 3013 3005 3004 3002 2990 2981 2981 2982 2982 2983 2980 2980
3068 3068 3067 3065 3063 3064 3064 3064 3063 3060 3048 3047 3045 3046 3046 3045 3045 3043 3038 3036 3034 3030 3026 3023 3020 3016 3013 3011 3011 3009 3008 3010 3012 3005 3002 2997 2975 2976 2975 2975 2977 2976 2975 2975
3056 3055 3054 3054 3053 3051 3050 3050 3052 3048 3037 3037 3034 3036 3039 3036 3034 3032 3032 3030 3027 3023 3018 3015 3012 3007 3004 2998 2998 2998 3001 3004 3007 3004 2996 2976 2970 2967 2968 2969 2969 2969 2969 2969
3044 3043 3042 3042 3042 3043 3038 3039 3039 3038 3031 3022 3025 3024 3025 3025 3025 3022 3019 3017 3016 3013 3009 3005 3004 3000 2996 2992 2989 2989 2993 2996 3000 2995 2995 2980 2963 2964 2964 2965 2961 2961 2964 2964
3033 3032 3031 3031 3030 3031 3030 3026 3029 3026 3022 3017 3019 3015 3014 3015 3015 3013 3010 3009 3006 3003 2999 2997 2995 2992 2992 2987 2981 2979 2984 2987 2985 2988 2986 2967 2961 2959 2961 2964 2964 2958 2958 2958
3020 3020 3020 3020 3019 3019 3018 3015 3017 3016 3011 3008 3008 3005 3003 3002 3003 3004 3001 3001 2993 2994 2991 2988 2985 2981 2981 2978 2974 2971 2974 2977 2976 2981 2981 2966 2955 2956 2961 2958 2955 2953 2952 2951
3003 3006 3007 3008 3007 3008 3006 3003 3007 3004 3000 2996 2999 2994 2992 2993 2992 2992 2989 2988 2985 2983 2980 2978 2975 2973 2971 2970 2969 2966 2970 2967 2967 2967 2958 2955 2953 2952 2952 2950 2949 2947 2946 2945
2990 2992 2994 2994 2996 2996 2995 2992 2996 2993 2990 2986 2988 2982 2982 2983 2981 2979 2978 2975 2974 2971 2970 2968 2968 2967 2963 2963 2959 2958 2957 2959 2958 2958 2955 2953 2952 2950 2947 2945 2943 2942 2941 2940
2979 2982 2983 2984 2984 2985 2985 2983 2984 2985 2981 2978 2976 2972 2972 2973 2970 2968 2967 2965 2964 2963 2961 2959 2957 2956 2954 2952 2953 2949 2950 2951 2950 2949 2950 2948 2946 2944 2942 2939 2938 2937 2937 2936
2971 2973 2973 2975 2976 2976 2974 2972 2971 2973 2978 2969 2965 2961 2963 2963 2961 2960 2957 2956 2953 2953 2953 2950 2948 2946 2947 2945 2943 2937 2942 2941 2942 2942 2943 2941 2939 2938 2936 2934 2934 2933 2932 2931
2965 2965 2966 2967 2968 2965 2965 2962 2961 2961 2965 2963 2958 2954 2953 2952 2951 2949 2947 2946 2944 2943 2944 2941 2940 2939 2943 2938 2930 2934 2933 2935 2937 2938 2936 2935 2933 2932 2930 2930 2930 2929 2928 2927
2957 2958 2959 2958 2959 2959 2959 2957 2954 2954 2957 2954 2949 2948 2945 2945 2943 2940 2938 2936 2935 2935 2936 2934 2933 2934 2935 2928 2923 2928 2929 2929 2931 2931 2930 2929 2928 2928 2927 2926 2926 2925 2924 2923
2951 2952 2951 2952 2952 2951 2948 2946 2948 2949 2950 2949 2946 2939 2937 2934 2934 2933 2931 2929 2928 2928 2929 2926 2927 2928 2926 2919 2920 2921 2922 2923 2924 2925 2925 2925 2924 2924 2923 2923 2921 2921 2920 2919
2945 2947 2946 2946 2945 2943 2941 2941 2942 2942 2945 2940 2935 2933 2933 2926 2925 2925 2924 2924 2924 2924 2921 2920 2923 2917 2914 2913 2914 2916 2918 2919 2920 2920 2921 2920 2920 2920 2919 2919 2918 2916 2916 2915
2942 2942 2941 2938 2939 2937 2937 2935 2935 2933 2933 2930 2925 2924 2923 2925 2920 2919 2924 2921 2921 2917 2916 2916 2911 2901 2904 2909 2911 2914 2915 2916 2917 2917 2916 2916 2916 2915 2915 2914 2913 2912 2911 2911
2937 2935 2934 2935 2934 2933 2932 2930 2929 2927 2924 2919 2915 2915 2917 2917 2917 2919 2920 2917 2916 2914 2913 2912 2906 2898 2897 2900 2907 2911 2912 2913 2913 2913 2913 2913 2912 2911 2911 2910 2909 2909 2908 2907
2934 2934 2932 2931 2930 2928 2928 2924 2923 2920 2918 2913 2912 2913 2912 2911 2913 2915 2915 2915 2913 2911 2911 2908 2901 2900 2900 2904 2906 2909 2910 2911 2911 2911 2911 2910 2909 2907 2907 2907 2906 2905 2904 2903
2931 2931 2930 2929 2927 2923 2920 2917 2915 2914 2912 2911 2910 2910 2909 2909 2912 2913 2912 2911 2910 2909 2907 2902 2899 2900 2903 2904 2906 2907 2908 2910 2909 2908 2907 2907 2906 2904 2904 2903 2903 2902 2900 2899
2927 2928 2926 2925 2921 2917 2914 2913 2912 2912 2911 2910 2908 2907 2909 2908 2909 2910 2908 2908 2907 2905 2903 2898 2899 2902 2903 2905 2906 2907 2908 2907 2906 2905 2905 2904 2903 2901 2900 2899 2898 2898 2897 2895
2925 2926 2921 2917 2915 2913 2911 2911 2911 2910 2908 2907 2905 2906 2907 2907 2908 2906 2906 2905 2902 2899 2897 2898 2901 2903 2904 2905 2906 2906 2906 2905 2904 2903 2902 2901 2900 2899 2897 2896 2895 2894 2893 2892
2921 2920 2916 2914 2913 2912 2910 2910 2908 2907 2905 2904 2904 2904 2905 2905 2905 2903 2903 2902 2897 2897 2898 2901 2902 2904 2904 2905 2906 2906 2904 2903 2903 2902 2901 2899 2897 2895 2894 2893 2891 2890 2889 2888
2914 2910 2910 2911 2911 2910 2909 2907 2907 2904 2903 2902 2902 2902 2902 2902 2901 2901 2899 2897 2898 2899 2900 2902 2902 2903 2904 2905 2905 2903 2903 2903 2902 2900 2898 2896 2894 2892 2890 2889 2887 2886 2885 2884